Flag for Germany Weather past 2 weeks in Wertheim, Baden-Württemberg, Germany

Now
78 °F

Overcast.


Feels Like: 78 °F
Forecast: 54 / 82 °F
Wind: 2 mph from South

Location: Wuerzburg

Current Time: Aug 1, 2015 at 6:30:31 PM

Latest Report: Aug 1, 2015 at 6:00 PM


Visibility: 31 mi

Pressure: 29.94 "Hg

Humidity: 30%

Dew point: 44 °F

Location of WertheimLocation

Historic Weather in Wertheim — Graph

°F

Wertheim temperature yesterday

Maximum temperature yesterday: 73 °F (at 7:00 PM)
Minimum temperature yesterday: 51 °F (at 5:00 AM)
Average temperature yesterday: 63 °F

Past Weeks' High & Low Weather Summary

 TemperatureHumidityPressure
High94 °F (Jul 17, 6:00 PM)95% (Jul 20, 4:00 AM)30.14 "Hg (Jul 20, 4:00 AM)
Low49 °F (Jul 30, 5:00 AM)21% (Jul 17, 5:00 PM)29.68 "Hg (Jul 25, 5:00 AM)
Average69 °F59%29.92 "Hg
* Reported Jul 17 5:00 PM — Aug 1 5:00 PM, Wertheim, Weather by CustomWeather, © 2015

Note: Actual official high and low records may vary slightly from our data, if they occured in-between our weather recording intervals... More about our weather records

Advertising

Wertheim weather history for previous 24 hours

 ConditionsComfort  
Time TempWeatherWind HumidityBarometerVisibility
5:00 PM
Sat, Aug 1
78 °FOvercast.1 mph29%29.94 "Hg31 mi
4:00 PM80 °FOvercast.3 mph29%29.94 "Hg31 mi
3:00 PM75 °FOvercast.2 mph34%29.96 "Hg31 mi
2:00 PM72 °FPartly sunny.2 mph42%29.97 "Hg28 mi
1:00 PM71 °FPartly sunny.3 mph43%29.98 "Hg31 mi
12:00 PM69 °FOvercast.2 mph44%29.98 "Hg31 mi
11:00 AM66 °FOvercast.1 mph48%29.99 "Hg31 mi
10:00 AM64 °FOvercast.2 mph52%29.99 "Hg31 mi
9:00 AM61 °FOvercast.2 mph57%29.98 "Hg31 mi
8:00 AM57 °FOvercast.2 mph62%29.98 "Hg31 mi
7:00 AM55 °FOvercast.3 mph65%29.98 "Hg31 mi
5:00 AM56 °FOvercast.3 mph64%29.98 "Hg34 mi
4:00 AM57 °FOvercast.5 mph61%29.98 "Hg34 mi
3:00 AM58 °FPassing clouds.5 mph60%29.99 "Hg34 mi
2:00 AM58 °FPassing clouds.3 mph60%29.99 "Hg34 mi
1:00 AM59 °FPassing clouds.2 mph58%30.01 "Hg34 mi
12:00 AM60 °FPassing clouds.3 mph53%30.00 "Hg34 mi
11:00 PM
Fri, Jul 31
62 °FPassing clouds.3 mph48%30.00 "Hg34 mi
10:00 PM64 °FPassing clouds.3 mph45%30.00 "Hg34 mi
9:00 PM68 °FPartly sunny.3 mph39%29.99 "Hg34 mi
8:00 PM70 °FPartly sunny.3 mph36%29.99 "Hg34 mi
7:00 PM73 °FPartly sunny.2 mph32%30.00 "Hg34 mi
6:00 PM72 °FPartly sunny.2 mph32%30.01 "Hg37 mi
Weather by CustomWeather, © 2015

See weather overviewHow to use our weather pages